Location: Nitra
(48.3167°N, 18.0833°E)
Time: 14:26:56
(UTC+02:00)

Daily predictions for brighter satellites

Satellite Brightness Start Highest point End
(mag) Time Altitude Azimuth Time Altitude Azimuth Time Altitude Azimuth
Cosmos 1242 Rocket 4.0 18:11:47 10° SSW 18:15:17 43° WNW 18:18:51 10° N
GP-B 3.3 18:12:23 10° NNE 18:16:42 48° E 18:20:59 10° SSE
Meteor 1-16 Rocket 4.1 18:12:02 10° S 18:17:20 85° E 18:22:47 10° NNE
CZ-2C R/B 4.2 18:13:27 10° SSW 18:17:38 35° W 18:21:56 10° NNW
SKYMED 2 4.4 18:14:28 10° NE 18:18:16 29° E 18:22:03 10° SSE
Aureole 2 4.4 18:15:22 10° NNW 18:18:22 49° ENE 18:21:38 10° SE
Cosmos 2219 Rocket 2.9 18:13:23 10° NNW 18:18:25 32° NE 18:23:25 10° ESE
Cosmos 1743 Rocket 3.5 18:15:07 10° N 18:19:31 76° E 18:23:56 10° SSE
Meteor 1-11 4.4 18:14:09 10° NNW 18:19:58 86° W 18:25:42 10° S
Cosmos 44 4.5 18:17:53 10° SSE 18:20:56 19° ESE 18:24:00 10° ENE
CZ-4 R/B 1.5 18:17:50 10° SSE 18:22:02 88° WSW 18:26:12 10° NNW
SL-24 R/B - RUBIN 2 4.1 18:17:21 10° NW 18:22:20 70° SW 18:26:48 10° SSE
Cosmos 2221 3.6 18:19:00 10° SE 18:22:31 25° E 18:26:03 10° NNE
CZ-4C R/B 3.4 18:19:54 10° SSE 18:23:39 20° ESE 18:27:44 10° ENE
Aureole 2 Rocket 3.9 18:20:31 10° N 18:23:44 24° ENE 18:27:03 10° ESE
Cosmos 921 Rocket 3.1 18:20:02 10° NNW 18:24:29 64° ENE 18:28:50 10° SSE
Cosmos 2084 4.2 18:21:37 10° NNW 18:24:57 28° NE 18:28:19 10° E
CZ-4 R/B 4.4 18:22:07 10° SSE 18:26:13 67° ENE 18:30:21 10° N
MTI 4.0 18:23:43 10° NNE 18:26:51 45° E 18:29:56 10° S
SMAP 3.8 18:26:56 10° S 18:31:31 60° WSW 18:36:09 10° NNW
Cosmos 1842 Rocket 3.6 18:27:42 10° S 18:32:07 65° E 18:36:32 10° NNE
SL-8 R/B 4.1 18:28:08 10° SW 18:32:49 52° SSE 18:37:15 12° E
NOAA 12 4.4 18:28:56 10° SE 18:33:59 47° ENE 18:39:04 10° N
METEOR-M 4.1 18:29:30 10° SSE 18:34:48 68° ENE 18:40:08 10° N
Cosmos 1420 Rocket 4.0 18:29:51 10° NNW 18:35:12 74° ENE 18:40:29 10° SSE
EO 1 Del DPAF 3.4 18:32:28 10° NNE 18:36:14 49° E 18:39:58 10° S
APEX 4.0 18:34:18 10° SSE 18:36:32 19° ESE 18:38:02 13° ENE
GRACE-1 4.3 18:34:33 10° SSE 18:36:56 34° E 18:39:21 10° NNE
SL-16 R/B 4.5 18:32:24 10° NW 18:37:14 29° WSW 18:42:03 10° SSW
Cosmos 2366 rocket 4.0 18:33:13 10° S 18:39:26 90° E 18:45:39 10° N
ERS-2 2.9 18:36:02 10° S 18:39:41 59° WSW 18:43:22 10° NNW
Cosmos 1500 Rocket 3.6 18:35:46 10° N 18:40:09 86° W 18:44:28 10° S
MONITOR-E 4.1 18:38:09 10° SSE 18:41:13 64° ENE 18:44:17 10° N
Cosmos 2333 4.2 18:38:16 10° NNW 18:43:59 67° ENE 18:49:43 10° SE
BREEZE M DEB (TANK) 2.3 18:37:32 10° W 18:44:03 83° N 18:46:06 16° E
Cosmos 1315 Rocket 2.8 18:40:05 10° N 18:44:11 77° ENE 18:48:17 10° SSE
Landsat 4 3.9 18:40:36 10° N 18:44:20 76° WNW 18:48:03 10° SSW
Cosmos 2237 4.4 18:42:25 10° NNW 18:48:11 81° WSW 18:53:54 10° SSE
Cosmos 1726 3.1 18:46:29 10° SE 18:49:32 25° E 18:52:36 10° NE
Thor Agena Rocket 4.4 18:46:05 10° NE 18:50:22 26° E 18:54:35 10° SSE
Abrixas rocket 2.1 18:47:35 10° W 18:50:53 86° N 18:53:04 20° E
Cosmos 44 Rocket 3.8 18:47:38 10° S 18:51:55 36° ESE 18:55:46 12° NE
Cosmos 2237 Rocket 2.9 18:48:33 10° NNW 18:53:44 34° NE 18:57:54 15° ESE
Gbstr 26 Del rocket 3.6 18:49:40 10° WNW 18:54:27 75° SSW 19:00:18 11° ESE
Meteor 1-28 Rocket 3.7 18:51:33 10° N 18:55:19 63° WNW 18:59:02 10° SSW
Resurs 01 Rocket 3.1 19:03:24 18° ENE 19:03:40 18° ENE 19:06:40 10° NNE
Cosmos 1331 Rocket 4.5 18:59:19 10° N 19:04:15 39° ENE 19:07:59 16° ESE
SL-16 R/B 3.5 19:00:48 10° N 19:05:10 22° NE 19:07:11 18° ENE
Cosmos 2227 Rocket 3.6 19:01:48 10° SE 19:04:19 16° ESE 19:04:19 16° ESE
Sich 1 3.4 19:01:40 10° N 19:05:50 41° ENE 19:10:00 10° SE
COSMO-SKYMED 1 2.5 19:02:08 10° NNE 19:06:30 87° E 19:10:51 10° SSW
Lacrosse 5 rocket 3.0 19:04:45 10° WNW 19:08:29 26° N 19:11:10 15° NE
SJ-6B 3.4 19:08:06 23° ESE 19:09:39 32° ENE 19:13:01 10° N
Cosmos 1000 Rocket 4.4 19:04:11 10° N 19:10:27 78° E 19:16:37 10° SSE
Cosmos 2360 Rocket 3.9 19:09:50 10° NW 19:14:55 35° WSW 19:20:00 10° S
Cosmos 1821 Rocket 4.0 19:09:29 10° S 19:15:33 61° E 19:21:44 10° NNE
FREGAT/IRIS 2.7 19:14:49 32° SE 19:15:50 47° ENE 19:18:43 10° N
USA 234 3.9 19:11:24 18° ENE 19:15:57 43° N 19:22:04 10° WNW
Cosmos 1934 Rocket 4.2 19:10:09 10° SSE 19:16:12 48° E 19:22:16 10° NNE
Cosmos 1908 3.4 19:13:47 10° SSW 19:17:41 73° W 19:21:37 10° N
Cosmos 1980 3.9 19:12:30 10° NNW 19:18:01 50° NE 19:21:42 20° ESE
Cosmos 1805 Rocket 3.4 19:14:39 10° N 19:19:03 82° ENE 19:23:28 10° SSE
Cosmos 2239 Rocket 4.4 19:15:38 10° S 19:21:41 67° E 19:27:49 10° NNE
DMSP B5D1-3 4.4 19:16:41 10° NNE 19:21:50 74° ESE 19:26:58 10° S
ATLAS 5 CENTAUR R/B 4.0 19:19:52 10° NNW 19:23:25 17° N 19:26:24 12° NE
Cosmos 1269 Rocket 3.9 19:19:25 10° S 19:24:38 66° ESE 19:29:54 10° NNE
COSMOS 2428 3.2 19:19:10 10° NNW 19:24:47 63° WSW 19:30:23 10° SSE
H-2A R/B 2.7 19:23:03 10° SSE 19:26:50 64° ENE 19:30:45 10° N
Cosmos 2333 Rocket 2.1 19:22:07 10° NNW 19:27:53 80° ENE 19:33:15 12° SSE
Cosmos 1666 Rocket 3.4 19:23:55 10° N 19:28:16 67° E 19:32:33 10° SSE
ALOS 2.7 19:25:25 10° S 19:30:03 64° WSW 19:34:43 10° NNW
Cosmos 1302 Rocket 4.5 19:27:38 10° N 19:32:32 39° ENE 19:33:46 34° E
Cosmos 2219 3.1 19:28:04 10° SSW 19:33:47 71° ESE 19:39:30 10° NNE
HJ-1C 3.4 19:33:55 55° ENE 19:33:55 55° ENE 19:37:17 10° N
Cosmos 1633 Rocket 3.0 19:29:42 10° N 19:34:07 64° ENE 19:37:28 17° SSE
FENGYUN 3A 4.1 19:30:49 10° S 19:36:10 64° WSW 19:41:34 10° NNW
Cosmos 2123 Rocket 3.9 19:35:33 10° N 19:41:50 78° E 19:48:06 10° SSE
Cosmos 2297 Rocket 3.8 19:37:49 10° SSE 19:39:18 17° SSE 19:39:18 17° SSE
Cosmos 1300 2.5 19:41:23 10° S 19:45:12 74° E 19:49:03 10° NNE
Spot 2 Rocket 3.9 19:45:36 40° ENE 19:45:46 40° ENE 19:50:29 10° N
CSL-04 DEB 4.2 19:46:31 43° SSE 19:47:46 77° ENE 19:51:47 10° NNW
Cosmos 2098 Rocket 3.8 19:43:11 10° SSW 19:48:00 73° WNW 19:54:11 10° N
Meteor 2-2 Rocket 4.2 19:42:44 10° S 19:48:16 55° E 19:53:46 10° NNE
Iridium 4 Rocket 4.2 19:42:50 10° SSW 19:48:28 64° W 19:54:22 10° N
Cosmos 1605 Rocket 3.9 19:44:00 10° S 19:49:57 58° E 19:55:54 10° NNE
Cosmos 494 Rocket 4.2 19:45:43 10° S 19:50:07 45° ESE 19:50:07 45° ESE
MOS 1-B Rocket 3.9 19:47:31 26° SE 19:50:51 64° ENE 19:57:06 10° N
CZ-2D R/B 3.7 19:51:54 45° NNE 19:51:54 45° NNE 19:54:55 10° N
Cosmos 1110 Rocket 4.0 19:46:22 10° NNW 19:51:43 84° WSW 19:55:19 21° SSE
Cosmos 967 Rocket 4.5 19:46:31 10° NW 19:52:59 70° NE 19:55:31 39° ESE
USA 32 4.0 19:47:54 10° N 19:53:05 56° E 19:54:17 45° SE
Meteor 2-10 3.8 19:48:52 10° S 19:53:54 80° E 19:59:05 10° NNE
FengYun 1-2 T 4.4 19:50:26 10° S 19:55:55 72° WSW 20:01:25 10° NNW
Aureole 2 Rocket 4.3 19:55:16 10° NW 19:58:51 36° WSW 20:02:34 10° S
Cosmos 2221 4.1 19:55:56 10° SW 19:59:55 35° WNW 20:03:58 10° N
Cosmos 44 3.4 19:57:26 10° SW 20:01:43 60° NW 20:03:15 37° NNE
Cosmos 2219 Rocket 3.0 19:57:11 10° NW 20:02:36 50° WSW 20:07:59 10° S
Cosmos 2084 4.2 20:00:57 10° NW 20:04:33 42° SW 20:05:13 38° SSW
NOSS 0 Rocket 4.4 20:04:54 10° NW 20:10:58 60° WSW 20:15:21 19° S
CZ-4C R/B 2.2 20:05:56 10° SW 20:11:17 79° NW 20:14:12 32° NE
SL-8 R/B 3.6 20:10:25 10° W 20:15:13 88° WNW 20:15:13 88° WNW
Cosmos 1447 Rocket 4.4 20:13:44 10° N 20:20:08 84° E 20:22:26 42° SSE
Envisat 2.9 20:20:56 77° NE 20:20:56 77° NE 20:25:48 10° NNW
USA 267 4.0 20:22:48 34° SSE 20:22:48 34° SSE 20:27:07 10° SSW
Cosmos 1726 4.4 20:21:41 10° SW 20:24:47 25° WNW 20:27:54 10° NNW
Cosmos 1470 Rocket 4.0 20:22:07 10° NNW 20:25:52 58° NW 20:25:52 58° NW
Thor Agena Rocket 4.5 20:25:00 10° N 20:29:53 46° WNW 20:34:41 10° SW
Cosmos 44 Rocket 4.4 20:29:00 10° WSW 20:33:25 39° NW 20:34:31 34° N
Cosmos 2237 Rocket 2.9 20:32:31 10° NW 20:38:01 49° WSW 20:39:47 37° SSW
Resurs 01 Rocket 2.7 20:40:59 42° NW 20:40:59 42° NW 20:44:07 10° NNW
Cosmos 2227 Rocket 3.2 20:42:57 10° SSW 20:46:16 37° SSW 20:46:16 37° SSW
Lacrosse 5 rocket 3.5 20:44:51 10° NW 20:46:51 22° NNW 20:46:51 22° NNW
SL-16 R/B 2.5 20:44:20 10° NNW 20:49:04 63° NNW 20:49:04 63° NNW
USA 234 3.3 20:58:45 69° N 20:58:45 69° N 21:05:00 10° NW
Meteor 2-3 Rocket 4.4 20:54:42 10° NNW 21:00:16 50° W 21:00:51 48° WSW
ATLAS 5 CENTAUR R/B 3.8 21:04:45 10° NNW 21:07:56 27° N 21:07:56 27° N
CZ-4C R/B 4.2 21:55:57 10° W 21:59:25 25° NW 21:59:25 25° NW
